BREEZE-M DEB [TANK] (43869 NORAD) Tracking and Keplerian Element Data

This shows tracking and keplerian element data for the satellite.

Feedback or suggestion? Click here.




ElementValue
Catalog43869
NameBREEZE-M DEB [TANK]
Epoch Orbit57
Epoch Day15.22330043
Epoch Year2019
RAAN96.7413
Inclination48.7294
Eccentricity0.7215034
Argument of Perigee5.9032
Mean Anonmoly359.3839
Mean Motion2.27471745
Decay Rate-1.85E-06
L11 43869U 18107C 19015.22330043 -.00000185 00000-0 00000+0 0 9994
L22 43869 48.7294 96.7413 7215034 5.9032 359.3839 2.27471745 578

Live tracking and technical data element details for BREEZE-M DEB [TANK] (NORAD 43869). BREEZE-M DEB [TANK] can be tracked NOW for your location showing map with azimuth and elevation plus other details from your city location.

Track the satellite on the map from your city or location and see movement details for azimuth, elevation, latitude, longitude, range, height, and movement on the map or in text.







IsCatalogInMostPopularTable: catalog: 43869, numindb: 16
Update: records affected: 1



GetName: 43869 BREEZE-M DEB [TANK]

Hit Count: updated at: Thu, 17 Jan 2019 14:53:15 GMT